Starlink 11541

operational
NORAD ID: 63015 Int'l Des: 2025-032 Owner: SPXS Country: US Constellation: starlink
LEOCIRCULAR

About Starlink 11541

Description loading...

Live Position

Loading 3D Globe...

Upcoming Passes

Altitude History

Altitude vs Time

uPlot chart will show altitude changes over time

Two-Line Element Set

1 63015U 25032L 25351.32809051 .00209503 00000-0 15924-2 0 9993
2 63015 42.9995 331.5015 0001312 274.1556 85.9162 15.70884523 49276
Epoch: Dec 17, 2025 • Age: 23 hours

Current Status

Altitude 356.9 km
Velocity 7.70 km/s
Sub-Earth Point 33.29°N, 178.19°E
Launch Date Feb 15, 2025
Age 0.8 years
Type internet

Technical Details

Classification Payload
Mass 960.00 kg
Dry Mass 910.00 kg
Total Mass 960.00 kg
Length 0.30 m
Diameter 4.10 m
Span 29.00 m
Shape Box + pan
Manufacturer SPXS
Bus Type Starlink V2MD
Phase Status In Orbit
Owner/State SPXS/US

Large Constellations

Loading constellations...